TimeMST,TemperatureF,Dew PointF,Humidity,Sea Level PressureIn,VisibilityMPH,Wind Direction,Wind SpeedMPH,Gust SpeedMPH,PrecipitationIn,Events,Conditions,WindDirDegrees,DateUTC
12:53 AM,39.9,27.0,60,29.62,10.0,North,20.7,31.1,N/A,,Clear,360,2014-01-04 07:53:00
1:53 AM,35.1,25.0,67,29.70,10.0,North,17.3,-,N/A,,Clear,360,2014-01-04 08:53:00
2:53 AM,30.0,21.9,72,29.73,10.0,NNW,16.1,-,N/A,,Clear,340,2014-01-04 09:53:00
3:53 AM,28.0,21.0,75,29.75,10.0,North,13.8,-,N/A,,Clear,350,2014-01-04 10:53:00
4:53 AM,24.1,19.9,84,29.79,10.0,NNW,11.5,-,N/A,,Clear,340,2014-01-04 11:53:00
5:43 AM,27.0,21.0,78,29.81,10.0,North,15.0,-,N/A,,Mostly Cloudy,350,2014-01-04 12:43:00
5:53 AM,27.0,21.0,78,29.83,10.0,North,13.8,-,N/A,,Overcast,350,2014-01-04 12:53:00
6:53 AM,28.0,21.0,75,29.89,10.0,North,21.9,27.6,N/A,,Overcast,360,2014-01-04 13:53:00
7:17 AM,27.0,19.9,75,29.88,10.0,North,21.9,27.6,N/A,,Scattered Clouds,360,2014-01-04 14:17:00
7:33 AM,27.0,19.9,75,29.88,10.0,North,21.9,27.6,N/A,,Mostly Cloudy,10,2014-01-04 14:33:00
7:53 AM,26.1,19.9,78,29.92,10.0,NNE,20.7,27.6,N/A,,Overcast,20,2014-01-04 14:53:00
8:27 AM,25.0,21.0,85,29.92,1.8,North,20.7,-,0.00,Snow,Light Snow,10,2014-01-04 15:27:00
8:53 AM,24.1,21.0,88,29.98,1.0,North,18.4,-,0.00,Snow,Light Snow,360,2014-01-04 15:53:00
8:59 AM,24.1,21.0,88,29.94,0.8,North,17.3,-,0.01,Snow,Light Snow,10,2014-01-04 15:59:00
9:14 AM,24.1,21.9,91,29.94,0.5,North,15.0,-,0.01,Fog-Snow,Snow,10,2014-01-04 16:14:00
9:26 AM,24.1,21.9,91,29.94,0.8,NNE,12.7,-,0.02,Snow,Light Snow,20,2014-01-04 16:26:00
9:36 AM,24.1,21.9,91,29.97,0.8,North,13.8,-,0.02,Snow,Light Snow,10,2014-01-04 16:36:00
9:53 AM,24.1,21.9,91,30.01,0.8,North,13.8,-,0.03,Snow,Light Snow,10,2014-01-04 16:53:00
10:08 AM,25.0,21.9,88,29.96,1.0,North,16.1,-,0.00,Snow,Light Snow,10,2014-01-04 17:08:00
10:17 AM,25.0,21.9,88,29.95,0.8,North,13.8,-,0.00,Snow,Light Snow,10,2014-01-04 17:17:00
10:26 AM,25.0,23.0,92,29.96,0.5,North,12.7,-,0.01,Fog-Snow,Snow,360,2014-01-04 17:26:00
10:42 AM,25.0,21.9,88,29.95,1.2,North,17.3,-,0.01,Snow,Light Snow,350,2014-01-04 17:42:00
10:53 AM,25.0,21.9,88,29.99,1.0,North,17.3,-,0.01,Snow,Light Snow,360,2014-01-04 17:53:00
11:18 AM,24.1,21.0,88,29.93,0.5,North,17.3,-,0.00,Fog-Snow,Snow,10,2014-01-04 18:18:00
11:48 AM,24.8,21.2,86,29.91,1.2,North,18.4,-,0.01,Snow,Light Snow,10,2014-01-04 18:48:00
11:53 AM,24.1,21.0,88,29.96,1.8,North,18.4,-,0.01,Snow,Light Snow,10,2014-01-04 18:53:00
12:00 PM,24.1,21.0,88,29.92,2.0,North,19.6,-,0.00,Snow,Light Snow,10,2014-01-04 19:00:00
12:06 PM,24.1,21.0,88,29.91,1.8,North,16.1,-,0.00,Snow,Light Snow,10,2014-01-04 19:06:00
12:13 PM,24.1,21.9,91,29.92,1.5,North,15.0,-,0.00,Snow,Light Snow,10,2014-01-04 19:13:00
12:51 PM,23.0,19.4,86,29.92,0.8,North,17.3,-,0.01,Snow,Light Snow,10,2014-01-04 19:51:00
12:53 PM,23.0,21.0,92,29.98,0.5,North,17.3,-,0.01,Fog-Snow,Snow,10,2014-01-04 19:53:00
1:53 PM,21.9,19.0,89,30.00,0.5,North,20.7,-,0.01,Fog-Snow,Snow,10,2014-01-04 20:53:00
2:07 PM,21.9,19.9,92,29.93,0.8,North,20.7,-,0.00,Snow,Light Snow,10,2014-01-04 21:07:00
2:22 PM,21.9,19.0,89,29.94,0.8,North,21.9,-,0.01,Snow,Light Snow,360,2014-01-04 21:22:00
2:35 PM,21.9,19.0,89,29.95,1.0,North,17.3,-,0.01,Snow,Light Snow,10,2014-01-04 21:35:00
2:53 PM,21.0,18.0,88,30.04,1.2,North,20.7,26.5,0.01,Snow,Light Snow,10,2014-01-04 21:53:00
3:09 PM,21.0,18.0,88,29.96,2.0,North,19.6,-,0.00,Snow,Light Snow,10,2014-01-04 22:09:00
3:23 PM,21.0,18.0,88,29.96,1.5,North,19.6,26.5,0.00,Snow,Light Snow,10,2014-01-04 22:23:00
3:38 PM,21.0,18.0,88,29.97,3.0,North,16.1,-,0.00,Snow,Light Snow,10,2014-01-04 22:38:00
3:50 PM,21.2,17.6,86,29.98,2.0,North,16.1,-,0.00,Snow,Light Snow,360,2014-01-04 22:50:00
3:53 PM,21.0,18.0,88,30.08,2.0,North,16.1,-,0.00,Snow,Light Snow,360,2014-01-04 22:53:00
4:06 PM,21.0,17.1,85,29.99,8.0,North,13.8,-,0.00,Snow,Light Snow,360,2014-01-04 23:06:00
4:53 PM,21.0,14.0,74,30.11,10.0,North,10.4,-,0.00,,Overcast,360,2014-01-04 23:53:00
5:53 PM,21.0,10.9,65,30.12,10.0,North,12.7,-,N/A,,Overcast,10,2014-01-05 00:53:00
6:53 PM,19.0,10.0,68,30.16,10.0,North,8.1,-,N/A,,Overcast,360,2014-01-05 01:53:00
7:53 PM,19.0,9.0,65,30.19,10.0,North,9.2,-,N/A,,Overcast,360,2014-01-05 02:53:00
8:53 PM,15.1,9.0,77,30.23,10.0,North,8.1,-,N/A,,Mostly Cloudy,350,2014-01-05 03:53:00
9:53 PM,12.9,6.1,74,30.24,10.0,North,8.1,-,N/A,,Clear,350,2014-01-05 04:53:00
10:53 PM,5.0,1.0,84,30.27,10.0,North,9.2,-,N/A,,Clear,350,2014-01-05 05:53:00
11:53 PM,3.0,-2.0,80,30.27,10.0,NW,3.5,-,N/A,,Clear,310,2014-01-05 06:53:00